CZ-3B DEB, 40838

Orbit data source: Space-Track

CZ-3B DEB, 40838 is space debris in HEO originally from a launch on Mon, 19 Dec 2011 UTC launched from the Xichang Space Center, China (XSC). Debris objects in space refer to the collection of defunct objects orbiting the Earth. Examples of debris include non-operational satellites, rocket bodies, and fragments generated from explosions, collisions, or faulty payload assembly.

Loading next visibility...
Identifier
40838, 2011-077T
Orbit
HEO
Country
Flag of CNCN / PRC
Related business
Manufacturer
CALT
Mission
Spacecraft
Bus & Motor
Unknown
Mass
Unknown
Launch date (UTC)
2011-12-19 (15 years ago)
Launch vehicle
Unknown
Launch site
Xichang Space Center, China (XSC)
Object type
Payload
Rocket body
Debris
Shape & HBR
Unknown shape, 0.2 m
Radar Cross Section
Medium (>0.1 m² and <1 m²)

Expand to show TLE details & history
Last TLE update: 3 months ago

TLE from 3 months ago
0 CZ-3B DEB
1 40838U 11077T   26161.92243360  .00001011  00000-0  42146-2 0  9996
2 40838  25.6986 226.9879 7487432 245.3325  23.6385  1.96016343 80124
Epoch: 2026-06-10T22:08Z
TLE epoch observation values (Epoch: 2026-06-10T22:08:18.263Z)
Latitude
0.00037°
Longitude
-4.21342°
Altitude
10,924.884 km
Speed
5.594 km/s
True Right ascension
15h 08m 32s
True Declination
0° 00' 01"
Sunlit
Object was in daylight at epoch
Visualization orbit readout
Latitude
Unknown
Longitude
Unknown
Altitude
Unknown
Speed
Unknown
Apparent Right ascension
Unknown
Apparent Declination
Unknown
Sunlit
N/A
Visualization observer readout
Local Sidereal Time
16:29:44
Azimuth
Unknown
Elevation
Unknown
Doppler factor
Unknown
Orbital elements
Apogee altitude
40,791.744 km
Perigee altitude
399.161 km
Semi-major axis
26,973.589 km
Eccentricity
0.74874
Inclination
25.6986°
RAAN
226.9879°
Arg. of periapsis
245.3325°
True anomaly
114.73702°
Mean anomaly
23.6385°
Eccentric anomaly
61.24988°
Mean motion
0.48993 °/min
Orbital period
734.8 mins
BSTAR
0.0042146
Loading maneuver chart data...
Computing Atmospheric mass density...
Loading historical data...
Loading historical data...
Loading historical data...
Loading historical data...
Loading historical data...
Loading historical data...
Loading historical data...

Documentation

Showing up to 5 results
|